GW4598 Weather Reports


time (UTC)temp
C
wind
direction
speed
KPH
gust
KPH
rain 1hr
cm
rain 24hr
cm
rain mn
cm
humidity
%
barometer
mb
20260504235304 13 79 0.0 0.0 0.00 0.00 0.00 72 1008.4
20260504234759 14 79 0.0 0.0 0.00 0.00 0.00 65 1008.2
20260504234257 14 79 1.6 1.6 0.00 0.00 0.00 67 1008.2
20260504233753 15 103 0.0 0.0 0.00 0.00 0.00 70 1008.1
20260504233249 15 103 0.0 0.0 0.00 0.00 0.00 60 1008.1
20260504232746 16 108 0.0 0.0 0.00 0.00 0.00 57 1008.1
20260504232243 17 151 1.6 1.6 0.00 0.00 0.00 54 1007.9
20260504231740 17 130 1.6 1.6 0.00 0.00 0.00 49 1008.0
20260504231236 17 224 8.0 9.7 0.00 0.00 0.00 45 1008.0
20260504230732 17 236 3.2 3.2 0.00 0.00 0.00 46 1007.7
20260504230231 17 235 3.2 3.2 0.00 0.00 0.00 47 1007.7
20260504225729 18 229 4.8 4.8 0.00 0.00 0.00 47 1007.6
20260504225225 18 187 1.6 3.2 0.00 0.00 0.00 46 1007.5
20260504224722 18 169 1.6 3.2 0.00 0.00 0.00 48 1007.4
20260504224220 18 226 9.7 11.3 0.00 0.00 0.00 46 1007.4
20260504223716 18 140 1.6 1.6 0.00 0.00 0.00 44 1007.4
20260504223211 18 248 6.4 9.7 0.00 0.00 0.00 45 1007.4
20260504222709 18 174 11.3 16.1 0.00 0.00 0.00 44 1007.4
20260504222205 18 327 4.8 8.0 0.00 0.00 0.00 47 1007.4
20260504221703 18 233 4.8 8.0 0.00 0.00 0.00 46 1007.3
20260504221200 18 205 3.2 3.2 0.00 0.00 0.00 46 1007.4
20260504220656 18 229 12.9 16.1 0.00 0.00 0.00 44 1007.3
20260504220154 18 257 9.7 11.3 0.00 0.00 0.00 43 1007.3
20260504215650 18 237 4.8 4.8 0.00 0.00 0.00 44 1007.3
20260504215147 18 202 3.2 4.8 0.00 0.00 0.00 41 1007.5
20260504214643 18 281 1.6 1.6 0.00 0.00 0.00 44 1007.3
20260504214140 18 248 8.0 9.7 0.00 0.00 0.00 43 1007.4
20260504213636 18 241 12.9 14.5 0.00 0.00 0.00 47 1007.2
20260504213133 18 237 14.5 14.5 0.00 0.00 0.00 42 1007.4
20260504212629 18 245 8.0 12.9 0.00 0.00 0.00 43 1007.3
20260504212126 18 245 14.5 17.7 0.00 0.00 0.00 45 1007.0
20260504211624 19 242 8.0 11.3 0.00 0.00 0.00 43 1007.3
20260504211120 19 216 6.4 8.0 0.00 0.00 0.00 41 1007.3
20260504210618 19 303 4.8 8.0 0.00 0.00 0.00 43 1007.1
20260504210114 19 237 6.4 11.3 0.00 0.00 0.00 43 1007.3
20260504205612 18 216 4.8 4.8 0.00 0.00 0.00 44 1007.5
20260504205109 18 292 4.8 9.7 0.00 0.00 0.00 41 1007.4
20260504204608 18 87 1.6 1.6 0.00 0.00 0.00 44 1007.1
20260504204106 19 268 12.9 12.9 0.00 0.00 0.00 42 1007.1
20260504203604 18 337 4.8 4.8 0.00 0.00 0.00 43 1007.2
20260504203101 18 221 4.8 8.0 0.00 0.00 0.00 42 1007.0
20260504202556 18 237 9.7 12.9 0.00 0.00 0.00 42 1007.1
20260504202054 18 231 4.8 4.8 0.00 0.00 0.00 48 1007.0
20260504201550 18 241 6.4 8.0 0.00 0.00 0.00 46 1007.0
20260504201048 18 244 14.5 14.5 0.00 0.00 0.00 46 1007.1
20260504200544 18 276 9.7 12.9 0.00 0.00 0.00 46 1007.0
20260504200042 18 251 4.8 4.8 0.00 0.00 0.00 45 1007.0
20260504195537 17 237 17.7 20.9 0.00 0.00 0.00 46 1007.1
20260504195034 18 220 16.1 17.7 0.00 0.00 0.00 48 1007.1
20260504194531 18 240 22.5 24.1 0.00 0.00 0.00 47 1007.2
20260504194026 18 153 17.7 20.9 0.00 0.00 0.00 46 1007.2
20260504193523 18 203 9.7 11.3 0.00 0.00 0.00 44 1007.3
20260504193022 17 294 8.0 11.3 0.00 0.00 0.00 46 1007.4
20260504192520 17 232 17.7 20.9 0.00 0.00 0.00 48 1007.3
20260504192018 17 228 14.5 17.7 0.00 0.00 0.00 47 1007.3
20260504191515 17 238 3.2 8.0 0.00 0.00 0.00 47 1007.2
20260504191011 17 212 6.4 9.7 0.00 0.00 0.00 46 1007.3
20260504190507 17 217 11.3 14.5 0.00 0.00 0.00 49 1007.5
20260504190003 17 201 3.2 3.2 0.00 0.00 0.00 46 1007.5
20260504185501 17 231 14.5 16.1 0.00 0.00 0.00 51 1007.5
20260504184957 17 249 8.0 9.7 0.00 0.00 0.00 48 1007.4
20260504184452 17 176 6.4 8.0 0.00 0.00 0.00 43 1007.5
20260504183948 17 225 6.4 9.7 0.00 0.00 0.00 45 1007.7
20260504183446 17 289 6.4 9.7 0.00 0.00 0.00 46 1007.5
20260504182944 17 242 11.3 12.9 0.00 0.00 0.00 43 1007.4
20260504182440 17 270 9.7 12.9 0.00 0.00 0.00 44 1007.4
20260504181938 17 226 11.3 12.9 0.00 0.00 0.00 50 1007.6
20260504181434 17 28 4.8 8.0 0.00 0.00 0.00 45 1007.5
20260504180933 17 234 9.7 12.9 0.00 0.00 0.00 47 1007.6
20260504180432 17 243 20.9 25.7 0.00 0.00 0.00 43 1007.3
20260504175930 17 225 17.7 20.9 0.00 0.00 0.00 43 1007.4
20260504175426 17 226 17.7 22.5 0.00 0.00 0.00 49 1007.4
20260504174924 17 234 9.7 11.3 0.00 0.00 0.00 47 1007.3
20260504174421 16 240 16.1 20.9 0.00 0.00 0.00 49 1007.4
20260504173919 16 215 14.5 16.1 0.00 0.00 0.00 46 1007.4
20260504173415 16 216 14.5 16.1 0.00 0.00 0.00 47 1007.6
20260504172913 16 241 14.5 16.1 0.00 0.00 0.00 50 1007.4
20260504172408 16 244 17.7 22.5 0.00 0.00 0.00 47 1007.6
20260504171905 16 237 11.3 12.9 0.00 0.00 0.00 47 1007.6
20260504171402 16 234 12.9 16.1 0.00 0.00 0.00 46 1007.6
20260504170859 16 238 6.4 9.7 0.00 0.00 0.00 46 1007.5
20260504170355 16 223 8.0 11.3 0.00 0.00 0.00 46 1007.5
20260504160314 15 212 22.5 27.4 0.00 0.00 0.00 48 1007.8
20260504150739 14 227 14.5 20.9 0.00 0.00 0.00 53 1008.5
20260504150236 14 223 27.4 29.0 0.00 0.00 0.00 53 1008.4
20260504141205 12 222 12.9 16.1 0.00 0.00 0.00 59 1009.0
20260504140702 12 224 11.3 14.5 0.00 0.00 0.00 58 1009.0
20260504140158 12 208 19.3 22.5 0.00 0.00 0.00 60 1009.1
20260504130626 10 238 11.3 12.9 0.00 0.00 0.00 66 1009.7
20260504130123 10 127 0.0 1.6 0.00 0.00 0.00 67 1009.6
20260504110514 6 218 9.7 11.3 0.00 0.00 0.00 77 1010.5
20260504100436 6 223 11.3 12.9 0.00 0.00 0.00 76 1010.2
20260504081829 6 224 4.8 4.8 0.00 0.00 0.00 70 1010.3
20260504081326 6 307 6.4 8.0 0.00 0.00 0.00 70 1010.3
20260504080816 5 210 3.2 3.2 0.00 0.00 0.00 72 1010.2
20260504080314 5 153 6.4 8.0 0.00 0.00 0.00 74 1010.3
20260504070240 1 62 0.0 0.0 0.00 0.00 0.00 96 1010.1
20260504060201 0 85 0.0 0.0 0.00 0.00 0.00 95 1010.4
20260504050629 1 77 1.6 1.6 0.00 0.00 0.00 90 1010.2
20260504050126 1 80 0.0 1.6 0.00 0.00 0.00 88 1010.3
20260504045623 2 83 0.0 1.6 0.00 0.00 0.00 88 1010.3
20260504045118 2 160 1.6 1.6 0.00 0.00 0.00 88 1010.3
20260504044616 2 210 4.8 4.8 0.00 0.00 0.00 89 1010.5
20260504044112 2 205 6.4 8.0 0.00 0.00 0.00 90 1010.3
20260504043609 1 102 0.0 0.0 0.00 0.00 0.00 91 1010.5
20260504043107 1 102 0.0 1.6 0.00 0.00 0.00 91 1010.3
20260504042604 1 102 0.0 0.0 0.00 0.00 0.00 89 1010.3
20260504042100 1 102 0.0 0.0 0.00 0.00 0.00 89 1010.2
20260504041556 2 102 0.0 0.0 0.00 0.00 0.00 89 1010.4
20260504041053 1 105 0.0 1.6 0.00 0.00 0.00 88 1010.3
20260504040550 2 102 0.0 1.6 0.00 0.00 0.00 88 1010.1
20260504040047 2 101 0.0 1.6 0.00 0.00 0.00 86 1010.1
20260504035543 2 104 0.0 0.0 0.00 0.03 0.03 86 1010.0
20260504035040 2 106 1.6 1.6 0.00 0.03 0.03 85 1010.2
20260504034538 3 165 1.6 3.2 0.00 0.03 0.03 85 1010.0
20260504034034 3 135 1.6 1.6 0.00 0.03 0.03 84 1010.2
20260504033532 3 116 0.0 0.0 0.00 0.03 0.03 83 1010.0
20260504033030 3 198 4.8 4.8 0.00 0.03 0.03 81 1010.1
20260504032526 3 223 4.8 4.8 0.00 0.03 0.03 81 1010.0
20260504032023 4 218 6.4 8.0 0.00 0.03 0.03 83 1010.0
20260504031520 5 220 8.0 9.7 0.00 0.03 0.03 82 1009.9
20260504031016 4 214 4.8 4.8 0.00 0.03 0.03 79 1009.9
20260504030514 5 226 6.4 8.0 0.00 0.03 0.03 78 1010.0
20260504030010 5 225 6.4 8.0 0.00 0.03 0.03 78 1010.0
20260504025507 4 209 4.8 4.8 0.00 0.03 0.03 76 1010.0
20260504025004 5 224 3.2 3.2 0.00 0.03 0.03 79 1009.8
20260504024500 5 204 3.2 4.8 0.00 0.03 0.03 77 1009.8
20260504023958 5 119 1.6 1.6 0.00 0.03 0.03 75 1009.7
20260504023454 5 116 0.0 0.0 0.00 0.03 0.03 78 1009.8
20260504022950 5 194 3.2 4.8 0.00 0.03 0.03 78 1009.9
20260504022446 5 218 4.8 8.0 0.00 0.03 0.03 83 1009.8
20260504021943 4 79 0.0 0.0 0.00 0.03 0.03 74 1009.8
20260504021440 4 78 1.6 1.6 0.00 0.03 0.03 74 1009.8
20260504020937 4 86 0.0 1.6 0.00 0.03 0.03 77 1009.8
20260504020434 4 80 1.6 1.6 0.00 0.03 0.03 77 1009.8
20260504015931 4 83 0.0 1.6 0.00 0.03 0.03 77 1009.9
20260504015426 5 84 0.0 1.6 0.00 0.03 0.03 75 1009.7
20260504014923 6 93 0.0 0.0 0.00 0.03 0.03 76 1009.8
20260504014419 6 150 3.2 3.2 0.00 0.03 0.03 73 1009.8
20260504013916 6 239 8.0 8.0 0.00 0.03 0.03 78 1009.9
20260504013415 6 240 6.4 8.0 0.00 0.03 0.03 81 1009.9
20260504012910 6 236 8.0 9.7 0.00 0.03 0.03 77 1009.9
20260504012408 6 234 8.0 9.7 0.00 0.03 0.03 75 1009.8
20260504011905 6 231 3.2 4.8 0.00 0.03 0.03 74 1009.9
20260504011402 6 228 4.8 4.8 0.00 0.03 0.03 76 1009.9
20260504010858 6 212 3.2 3.2 0.00 0.03 0.03 71 1009.9
20260504010354 6 84 0.0 1.6 0.00 0.03 0.03 67 1009.7
20260504005850 6 84 1.6 1.6 0.00 0.03 0.03 65 1009.7
20260504005347 6 163 3.2 3.2 0.00 0.03 0.03 65 1009.6
20260504004845 6 90 0.0 0.0 0.00 0.03 0.03 66 1009.4
20260504004343 6 105 0.0 0.0 0.00 0.03 0.03 64 1009.2
20260504003839 6 75 0.0 0.0 0.00 0.03 0.03 64 1009.5
20260504003336 6 88 0.0 0.0 0.00 0.03 0.03 66 1009.2
20260504002832 6 106 1.6 3.2 0.00 0.03 0.03 63 1009.3
20260504002329 6 98 0.0 0.0 0.00 0.03 0.03 61 1009.2
20260504001827 6 101 0.0 0.0 0.00 0.03 0.03 61 1009.2
20260504001324 6 84 0.0 1.6 0.00 0.03 0.03 60 1009.1
20260504000821 7 192 3.2 4.8 0.00 0.03 0.03 64 1009.0
20260504000318 7 93 0.0 1.6 0.00 0.03 0.03 61 1009.0
20260503235815 7 148 1.6 3.2 0.00 0.03 0.03 60 1008.9